This is the latest recevied weather packets stored in our database for station/object vk4zu-13. If no packets are shown the sender has not sent any weather packets the latest 10 day(s).
| Time | Temp. | Humidity | Pressure | Rain* | Wind** | Luminosity | Snow |
|---|---|---|---|---|---|---|---|
| 1778123244 | 26.67° C | 59% | 1013.9 hPa | 0 mm | - | 519 W/m² | - |
| 1778123174 | 26.67° C | 59% | 1013.8 hPa | 0 mm | - | 568 W/m² | - |
| 1778123103 | 26.67° C | 58% | 1013.8 hPa | 0 mm | - | 397 W/m² | - |
| 1778123039 | 26.67° C | 58% | 1013.9 hPa | 0 mm | - | 397 W/m² | - |
| 1778122964 | 26.67° C | 57% | 1014 hPa | 0 mm | - | 311 W/m² | - |
| 1778122893 | 27.22° C | 57% | 1013.8 hPa | 0 mm | - | 585 W/m² | - |
| 1778122829 | 27.22° C | 56% | 1013.9 hPa | 0 mm | - | 585 W/m² | - |
| 1778122767 | 27.22° C | 56% | 1014 hPa | 0 mm | - | 624 W/m² | - |
| 1778122709 | 27.22° C | 59% | 1013.8 hPa | 0 mm | - | 624 W/m² | - |
| 1778122639 | 27.22° C | 57% | 1013.9 hPa | 0 mm | - | 622 W/m² | - |
| 1778122569 | 27.22° C | 59% | 1013.9 hPa | 0 mm | - | 248 W/m² | - |
| 1778122507 | 27.22° C | 58% | 1013.9 hPa | 0 mm | - | 248 W/m² | - |
| 1778122448 | 27.22° C | 61% | 1013.9 hPa | 0 mm | - | 248 W/m² | - |
| 1778122377 | 27.22° C | 61% | 1013.9 hPa | 0 mm | - | 248 W/m² | - |
| 1778122307 | 27.22° C | 61% | 1013.9 hPa | 0 mm | - | 248 W/m² | - |
| 1778122262 | 27.22° C | 60% | 1014 hPa | 0 mm | - | 533 W/m² | - |
| 1778122231 | 27.22° C | 62% | 1013.9 hPa | 0 mm | - | 533 W/m² | - |
| 1778122144 | 27.22° C | 63% | 1013.9 hPa | 0 mm | - | 533 W/m² | - |
| 1778122053 | 27.22° C | 59% | 1013.9 hPa | 0 mm | - | 533 W/m² | - |
| 1778121987 | 27.22° C | 61% | 1013.9 hPa | 0 mm | - | 684 W/m² | - |
| 1778121926 | 27.22° C | 63% | 1014 hPa | 0 mm | - | 684 W/m² | - |
| 1778121865 | 27.22° C | 61% | 1014 hPa | 0 mm | - | 684 W/m² | - |
| 1778121800 | 27.22° C | 59% | 1014.1 hPa | 0 mm | - | 684 W/m² | - |
| 1778121741 | 27.22° C | 61% | 1014.1 hPa | 0 mm | - | 684 W/m² | - |
| 1778121719 | 26.67° C | 63% | 1014.2 hPa | 0 mm | - | 496 W/m² | - |
* Rain latest hour (hover to see other rain measurements)
** Current wind speed in m/s (hover to see current wind gust speed)